This is the latest recevied weather packets stored in our database for station/object SV8FES. If no packets are shown the sender has not sent any weather packets the latest 1 day(s).
| Time | Temp. | Humidity | Pressure | Rain* | Wind** | Luminosity | Snow |
|---|---|---|---|---|---|---|---|
| 1778048551 | 22.22° C | 37% | 1016 hPa | 0 mm | - | 425 W/m² | - |
| 1778048492 | 22.78° C | 37% | 1016 hPa | 0 mm | - | 425 W/m² | - |
| 1778048430 | 22.78° C | 37% | 1016.1 hPa | 0 mm | - | 424 W/m² | - |
| 1778048374 | 22.78° C | 37% | 1016 hPa | 0 mm | - | 422 W/m² | - |
| 1778048311 | 22.78° C | 38% | 1016.1 hPa | 0 mm | - | 422 W/m² | - |
| 1778048190 | 22.78° C | 38% | 1016 hPa | 0 mm | - | 418 W/m² | - |
| 1778048070 | 22.22° C | 38% | 1016 hPa | 0 mm | - | 415 W/m² | - |
| 1778048013 | 22.22° C | 38% | 1015.9 hPa | 0 mm | - | 417 W/m² | - |
| 1778047952 | 22.22° C | 39% | 1016 hPa | 0 mm | - | 418 W/m² | - |
| 1778047831 | 22.22° C | 39% | 1016 hPa | 0 mm | - | 417 W/m² | - |
| 1778047772 | 22.22° C | 40% | 1015.9 hPa | 0 mm | - | 417 W/m² | - |
| 1778047655 | 21.67° C | 40% | 1016 hPa | 0 mm | - | 417 W/m² | - |
| 1778047591 | 21.67° C | 43% | 1016 hPa | 0 mm | - | 413 W/m² | - |
| 1778047471 | 21.67° C | 43% | 1016 hPa | 0 mm | - | 410 W/m² | - |
| 1778047412 | 21.67° C | 43% | 1016 hPa | 0 mm | - | 406 W/m² | - |
| 1778047353 | 21.67° C | 43% | 1015.9 hPa | 0 mm | - | 406 W/m² | - |
| 1778047291 | 21.11° C | 43% | 1015.9 hPa | 0 mm | - | 403 W/m² | - |
| 1778047172 | 21.11° C | 45% | 1015.9 hPa | 0 mm | - | 399 W/m² | - |
| 1778047051 | 20.56° C | 45% | 1015.9 hPa | 0 mm | - | 396 W/m² | - |
| 1778046988 | 20.56° C | 45% | 1015.9 hPa | 0 mm | - | 396 W/m² | - |
| 1778046800 | 20.56° C | 45% | 1015.9 hPa | 0 mm | - | 390 W/m² | - |
| 1778046740 | 20° C | 46% | 1015.9 hPa | 0 mm | - | 390 W/m² | - |
| 1778046679 | 20° C | 46% | 1015.8 hPa | 0 mm | - | 388 W/m² | - |
| 1778046620 | 20° C | 46% | 1015.8 hPa | 0 mm | - | 385 W/m² | - |
| 1778046555 | 20° C | 47% | 1015.9 hPa | 0 mm | - | 385 W/m² | - |
* Rain latest hour (hover to see other rain measurements)
** Current wind speed in m/s (hover to see current wind gust speed)